Terminal Aerodrome Forecast
Issued by NWS Dallas/Fort Worth, TX

Home | Current Version | Previous Version | Text Only | Print | Product List | Glossary On
Versions: 1 2 3 4 5 6 7 8 9 10 11 12 13 14 15 16 17 18 19 20 21 22 23 24 25 26 27 28
270
FTUS44 KFWD 280900 AAA
TAFACT
TAF AMD
KACT 280900Z 2809/2906 10006KT P6SM SCT130 BKN250
     FM281800 07006KT P6SM VCTS SCT050CB BKN130
     FM290100 07006KT P6SM SCT050 BKN130=

USA.gov is the U.S. government's official web portal to all federal, state and local government web resources and services.